Dades meteomassalio
Diari Summary for Febrer 15, 2017 Units:  Metric    English   Both
« Previous Day
Next Day »
Diari Semanal Mensual Anual Personalitzat
  Maxima: Minima: Mijana:
Temperatura: -17.8 °C -17.3 °C -13.2 °C
Rosada: -17.8 °C -17.7 °C -14.7 °C
Humitat: Humidity % 65 % 85 %
Velocitat del vent: 0 km/h 0 km/h 2.6 km/h
Racha vent: 0 km/h - -
Vent:- - NE
Pressio: 0 hPa 34865.6 hPa -
Pluja: 7.62 mm    
Historical Graphs
 
 
Tabular Data for Febrer 15, 2017
Time Temperature Dew Point Pressure Wind Wind Speed Wind Gust Humidity Rainfall Rate (Hourly) solar Conditions
-17.8 °C -17.8 °C 0 hPa Calm     Humidity % 0 mm SolarRadiationWatts/m^2 W/m2 Conditions
00:02 -15.2 °C -15.8 °C 34865.6 hPa Calm     92 % 0 mm 0.0 W/m2 RA
00:07 -15.2 °C -15.9 °C 34875.8 hPa Calm     92 % 0 mm 0.0 W/m2 CLR
00:12 -15.2 °C -15.9 °C 34875.8 hPa Calm     92 % 0 mm 0.0 W/m2 CLR
00:17 -15.3 °C -15.9 °C 34875.8 hPa Calm     92 % 0 mm 0.0 W/m2 CLR
00:22 -15.3 °C -16 °C 34875.8 hPa Calm     92 % 0 mm 0.0 W/m2 CLR
00:27 -15.4 °C -16.1 °C 34875.8 hPa Calm     92 % 0 mm 0.0 W/m2 CLR
00:32 -15.5 °C -16.2 °C 34889.3 hPa Calm     92 % 0 mm 0.0 W/m2 CLR
00:37 -15.6 °C -16.2 °C 34889.3 hPa Calm     92 % 0 mm 0.0 W/m2 CLR
00:42 -15.6 °C -16.2 °C 34889.3 hPa Calm     92 % 0 mm 0.0 W/m2 CLR
00:47 -15.6 °C -16.3 °C 34889.3 hPa Calm     92 % 0 mm 0.0 W/m2 CLR
00:53 -15.7 °C -16.2 °C 34889.3 hPa Calm     93 % 0 mm 0.0 W/m2 CLR
00:57 -15.6 °C -16.2 °C 34889.3 hPa Calm     93 % 0 mm 0.0 W/m2 CLR
01:03 -15.5 °C -16.1 °C 34889.3 hPa Calm     93 % 0 mm 0.0 W/m2 CLR
01:08 -15.5 °C -16.1 °C 34899.5 hPa Calm     93 % 0 mm 0.0 W/m2 CLR
01:13 -15.6 °C -16.2 °C 34899.5 hPa Calm     93 % 0 mm 0.0 W/m2 CLR
01:18 -15.6 °C -16.2 °C 34899.5 hPa Calm     93 % 0 mm 0.0 W/m2 CLR
01:23 -15.5 °C -16.1 °C 34899.5 hPa Calm     93 % 0 mm 0.0 W/m2 CLR
01:28 -15.5 °C -16.1 °C 34909.7 hPa Calm     93 % 0 mm 0.0 W/m2 CLR
01:33 -15.6 °C -16.2 °C 34909.7 hPa Calm     93 % 0 mm 0.0 W/m2 CLR
01:38 -15.6 °C -16.2 °C 34909.7 hPa Calm     93 % 0 mm 0.0 W/m2 CLR
01:43 -15.7 °C -16.2 °C 34909.7 hPa Calm     93 % 0 mm 0.0 W/m2 CLR
01:48 -15.6 °C -16.2 °C 34909.7 hPa Calm     93 % 0 mm 0.0 W/m2 CLR
01:53 -15.7 °C -16.2 °C 34909.7 hPa Calm     93 % 0 mm 0.0 W/m2 CLR
01:58 -15.7 °C -16.3 °C 34909.7 hPa Calm     93 % 0 mm 0.0 W/m2 CLR
02:03 -15.8 °C -16.3 °C 34909.7 hPa Calm     93 % 0 mm 0.0 W/m2 CLR
02:08 -15.8 °C -16.4 °C 34909.7 hPa Calm     93 % 0 mm 0.0 W/m2 CLR
02:13 -15.9 °C -16.4 °C 34923.2 hPa Calm     93 % 0 mm 0.0 W/m2 CLR
02:18 -15.9 °C -16.5 °C 34923.2 hPa Calm     93 % 0 mm 0.0 W/m2 CLR
02:23 -15.9 °C -16.5 °C 34923.2 hPa Calm     93 % 0 mm 0.0 W/m2 CLR
02:28 -16 °C -16.6 °C 34923.2 hPa Calm     93 % 0 mm 0.0 W/m2 CLR
02:33 -16.1 °C -16.6 °C 34923.2 hPa Calm     93 % 0 mm 0.0 W/m2 CLR
02:38 -16.1 °C -16.7 °C 34923.2 hPa Calm     93 % 0 mm 0.0 W/m2 CLR
02:43 -16.2 °C -16.7 °C 34923.2 hPa Calm     93 % 0 mm 0.0 W/m2 CLR
02:48 -16.2 °C -16.8 °C 34923.2 hPa Calm     93 % 0 mm 0.0 W/m2 CLR
02:53 -16.2 °C -16.8 °C 34923.2 hPa Calm     93 % 0 mm 0.0 W/m2 CLR
02:58 -16.2 °C -16.8 °C 34923.2 hPa Calm     93 % 0 mm 0.0 W/m2 CLR
03:03 -16.2 °C -16.8 °C 34923.2 hPa Calm     93 % 0 mm 0.0 W/m2 CLR
03:08 -16.3 °C -16.8 °C 34923.2 hPa Calm     93 % 0 mm 0.0 W/m2 CLR
03:13 -16.3 °C -16.8 °C 34923.2 hPa Calm     93 % 0 mm 0.0 W/m2 CLR
03:18 -16.3 °C -16.8 °C 34933.4 hPa Calm     93 % 0 mm 0.0 W/m2 CLR
03:23 -16.3 °C -16.8 °C 34933.4 hPa Calm     93 % 0 mm 0.0 W/m2 CLR
03:28 -16.3 °C -16.9 °C 34933.4 hPa Calm     93 % 0 mm 0.0 W/m2 CLR
03:33 -16.4 °C -17 °C 34933.4 hPa Calm     93 % 0 mm 0.0 W/m2 CLR
03:38 -16.4 °C -17 °C 34933.4 hPa Calm     93 % 0 mm 0.0 W/m2 CLR
03:43 -16.4 °C -17 °C 34933.4 hPa Calm     93 % 0 mm 0.0 W/m2 CLR
03:48 -16.4 °C -17 °C 34933.4 hPa Calm     93 % 0 mm 0.0 W/m2 CLR
03:53 -16.4 °C -16.9 °C 34933.4 hPa Calm     93 % 0 mm 0.0 W/m2 CLR
03:58 -16.3 °C -16.9 °C 34933.4 hPa Calm     93 % 0 mm 0.0 W/m2 CLR
04:03 -16.3 °C -16.8 °C 34933.4 hPa Calm     94 % 0 mm 0.0 W/m2 CLR
04:08 -16.3 °C -16.8 °C 34933.4 hPa Calm     94 % 0 mm 0.0 W/m2 CLR
04:13 -16.3 °C -16.8 °C 34933.4 hPa Calm     94 % 0 mm 0.0 W/m2 CLR
04:18 -16.3 °C -16.9 °C 34933.4 hPa Calm     93 % 0 mm 0.0 W/m2 CLR
04:23 -16.4 °C -16.9 °C 34933.4 hPa Calm     93 % 0 mm 0.0 W/m2 CLR
04:28 -16.4 °C -17 °C 34933.4 hPa Calm     93 % 0 mm 0.0 W/m2 CLR
04:33 -16.5 °C -17.1 °C 34933.4 hPa Calm     93 % 0 mm 0.0 W/m2 CLR
04:38 -16.5 °C -17.1 °C 34933.4 hPa Calm     93 % 0 mm 0.0 W/m2 CLR
04:43 -16.6 °C -17.1 °C 34933.4 hPa Calm     93 % 0 mm 0.0 W/m2 CLR
04:48 -16.6 °C -17.2 °C 34933.4 hPa Calm     93 % 0 mm 0.0 W/m2 CLR
04:53 -16.6 °C -17.2 °C 34933.4 hPa Calm     93 % 0 mm 0.0 W/m2 CLR
04:58 -16.7 °C -17.2 °C 34933.4 hPa Calm     93 % 7.62 mm 0.0 W/m2 RA
05:03 -16.7 °C -17.3 °C 34933.4 hPa Calm     93 % 7.62 mm 0.0 W/m2 CLR
05:08 -16.7 °C -17.2 °C 34933.4 hPa Calm     94 % 7.62 mm 0.0 W/m2 CLR
05:13 -16.7 °C -17.3 °C 34933.4 hPa Calm     93 % 7.62 mm 0.0 W/m2 CLR
05:18 -16.8 °C -17.3 °C 34946.9 hPa Calm     93 % 7.62 mm 0.0 W/m2 CLR
05:23 -16.8 °C -17.4 °C 34946.9 hPa Calm     93 % 7.62 mm 0.0 W/m2 CLR
05:28 -16.8 °C -17.4 °C 34946.9 hPa Calm     93 % 7.62 mm 0.0 W/m2 CLR
05:33 -16.8 °C -17.3 °C 34946.9 hPa Calm     94 % 7.62 mm 0.0 W/m2 CLR
05:38 -16.8 °C -17.3 °C 34946.9 hPa Calm     94 % 7.62 mm 0.0 W/m2 CLR
05:43 -16.9 °C -17.4 °C 34946.9 hPa Calm     94 % 7.62 mm 0.0 W/m2 CLR
05:48 -16.9 °C -17.5 °C 34946.9 hPa Calm     93 % 7.62 mm 0.0 W/m2 CLR
05:53 -16.9 °C -17.5 °C 34946.9 hPa Calm     93 % 7.62 mm 0.0 W/m2 CLR
05:58 -17 °C -17.4 °C 34946.9 hPa Calm     94 % 0 mm 0.0 W/m2 CLR
06:03 -17 °C -17.4 °C 34946.9 hPa Calm     94 % 0 mm 0.0 W/m2 CLR
06:08 -16.9 °C -17.4 °C 34957.1 hPa Calm     94 % 0 mm 0.0 W/m2 CLR
06:13 -17 °C -17.4 °C 34957.1 hPa Calm     94 % 0 mm 0.0 W/m2 CLR
06:18 -17 °C -17.4 °C 34957.1 hPa Calm     94 % 0 mm 0.0 W/m2 CLR
06:23 -17.1 °C -17.5 °C 34957.1 hPa Calm     94 % 0 mm 0.0 W/m2 CLR
06:28 -17.1 °C -17.6 °C 34967.2 hPa Calm     94 % 0 mm 0.0 W/m2 CLR
06:33 -17.1 °C -17.7 °C 34967.2 hPa Calm     93 % 0 mm 0.0 W/m2 CLR
06:38 -17.1 °C -17.6 °C 34967.2 hPa Calm     94 % 0 mm 0.0 W/m2 CLR
06:43 -17.1 °C -17.6 °C 34967.2 hPa Calm     94 % 0 mm 0.0 W/m2 CLR
06:48 -17.1 °C -17.6 °C 34967.2 hPa Calm     94 % 0 mm 0.0 W/m2 CLR
06:53 -17.1 °C -17.5 °C 34967.2 hPa Calm     94 % 0 mm 0.0 W/m2 CLR
06:58 -17.1 °C -17.5 °C 34967.2 hPa Calm     94 % 0 mm 0.0 W/m2 CLR
07:03 -17.1 °C -17.6 °C 34967.2 hPa Calm     94 % 0 mm 0.0 W/m2 CLR
07:08 -17.1 °C -17.7 °C 34967.2 hPa Calm     93 % 0 mm 0.0 W/m2 CLR
07:13 -17.2 °C -17.6 °C 34980.8 hPa Calm     94 % 0 mm 0.0 W/m2 CLR
07:19 -17.1 °C -17.6 °C 34967.2 hPa Calm     94 % 0 mm 0.0 W/m2 CLR
07:24 -17.1 °C -17.6 °C 34980.8 hPa Calm     94 % 0 mm 0.0 W/m2 CLR
07:29 -17.1 °C -17.6 °C 34980.8 hPa Calm     94 % 0 mm 0.0 W/m2 CLR
07:34 -17.1 °C -17.6 °C 34980.8 hPa Calm     94 % 0 mm 0.0 W/m2 CLR
07:39 -17.1 °C -17.6 °C 34980.8 hPa Calm     94 % 0 mm 0.0 W/m2 CLR
07:44 -17.1 °C -17.6 °C 34980.8 hPa Calm     94 % 0 mm 0.0 W/m2 OVC
07:49 -17.1 °C -17.6 °C 34980.8 hPa Calm     94 % 0 mm 0.0 W/m2 OVC
07:54 -17.2 °C -17.7 °C 34980.8 hPa Calm     94 % 0 mm 5.0 W/m2 OVC
07:59 -17.2 °C -17.7 °C 34980.8 hPa Calm     94 % 0 mm 5.0 W/m2 OVC
08:04 -17.2 °C -17.7 °C 34980.8 hPa Calm     94 % 0 mm 11.0 W/m2 BKN
08:09 -17.3 °C -17.7 °C 34990.9 hPa Calm     94 % 0 mm 14.0 W/m2 BKN
08:14 -17.2 °C -17.7 °C 34990.9 hPa Calm     94 % 0 mm 18.0 W/m2 BKN
08:19 -17.1 °C -17.5 °C 34990.9 hPa Calm     94 % 0 mm 23.0 W/m2 BKN
08:24 -17 °C -17.4 °C 34990.9 hPa Calm     94 % 0 mm 28.0 W/m2 BKN
08:29 -16.9 °C -17.4 °C 35001.1 hPa Calm     94 % 0 mm 40.0 W/m2 BKN
08:34 -16.8 °C -17.3 °C 34990.9 hPa Calm     94 % 0 mm 51.0 W/m2 SCT
08:39 -16.7 °C -17.2 °C 35001.1 hPa Calm     94 % 0 mm 63.0 W/m2 SCT
08:44 -16.6 °C -17.1 °C 35001.1 hPa Calm     94 % 0 mm 84.0 W/m2 FEW
08:49 -16.6 °C -17.1 °C 35001.1 hPa Calm     94 % 0 mm 88.0 W/m2 FEW
08:54 -16.5 °C -17 °C 35001.1 hPa Calm     94 % 0 mm 104.0 W/m2 CLR
08:59 -16.3 °C -16.8 °C 35001.1 hPa Calm     94 % 0 mm 120.0 W/m2 CLR
09:04 -16.2 °C -16.6 °C 35001.1 hPa Calm     94 % 0 mm 127.0 W/m2 CLR
09:09 -16.1 °C -16.6 °C 35001.1 hPa Calm     94 % 0 mm 165.0 W/m2 CLR
09:14 -16 °C -16.5 °C 35001.1 hPa Calm     94 % 0 mm 176.0 W/m2 CLR
09:19 -15.8 °C -16.3 °C 35001.1 hPa Calm     94 % 0 mm 127.0 W/m2 CLR
09:24 -15.7 °C -16.2 °C 35014.6 hPa Calm     94 % 0 mm 172.0 W/m2 CLR
09:29 -15.5 °C -16 °C 35014.6 hPa Calm     94 % 0 mm 186.0 W/m2 CLR
09:34 -15.3 °C -15.8 °C 35014.6 hPa Calm     94 % 0 mm 218.0 W/m2 CLR
09:39 -15.1 °C -15.6 °C 35014.6 hPa Calm     94 % 0 mm 243.0 W/m2 CLR
09:44 -14.9 °C -15.4 °C 35014.6 hPa Calm     94 % 0 mm 211.0 W/m2 CLR
09:49 -14.7 °C -15.2 °C 35014.6 hPa Calm     94 % 0 mm 260.0 W/m2 CLR
09:54 -14.5 °C -15.1 °C 35014.6 hPa Calm     93 % 0 mm 299.0 W/m2 CLR
09:59 -14.4 °C -14.9 °C 35014.6 hPa Calm     93 % 0 mm 318.0 W/m2 CLR
10:04 -14.1 °C -14.7 °C 35014.6 hPa Calm     93 % 0 mm 279.0 W/m2 CLR
10:09 -13.9 °C -14.6 °C 35014.6 hPa Calm     92 % 0 mm 366.0 W/m2 CLR
10:14 -13.8 °C -14.6 °C 35014.6 hPa Calm     91 % 0 mm 243.0 W/m2 CLR
10:19 -13.7 °C -14.4 °C 35014.6 hPa Calm     91 % 0 mm 320.0 W/m2 CLR
10:24 -13.4 °C -14.2 °C 35014.6 hPa Calm     91 % 0 mm 371.0 W/m2 CLR
10:29 -13.3 °C -14.3 °C 35014.6 hPa Calm     89 % 0 mm 272.0 W/m2 CLR
10:34 -13.2 °C -14.1 °C 35014.6 hPa Calm     89 % 0 mm 374.0 W/m2 CLR
10:39 -12.9 °C -14 °C 35014.6 hPa Calm     88 % 0 mm 401.0 W/m2 CLR
10:44 -12.7 °C -13.9 °C 35014.6 hPa Calm     87 % 0 mm 406.0 W/m2 CLR
10:49 -12.4 °C -13.6 °C 35014.6 hPa Calm     87 % 0 mm 411.0 W/m2 CLR
10:54 -12.2 °C -13.4 °C 35014.6 hPa Calm     86 % 0 mm 415.0 W/m2 CLR
10:59 -12 °C -13.4 °C 35001.1 hPa Calm     84 % 0 mm 439.0 W/m2 CLR
11:04 -11.8 °C -13.4 °C 35001.1 hPa Calm     83 % 0 mm 448.0 W/m2 CLR
11:09 -11.7 °C -13.3 °C 35001.1 hPa Calm     82 % 0 mm 459.0 W/m2 CLR
11:14 -11.5 °C -13.1 °C 35001.1 hPa Calm     83 % 0 mm 469.0 W/m2 CLR
11:19 -11.4 °C -13.1 °C 35001.1 hPa Calm     82 % 0 mm 476.0 W/m2 CLR
11:24 -11.2 °C -12.9 °C 35001.1 hPa Calm     82 % 0 mm 485.0 W/m2 CLR
11:29 -11.1 °C -12.8 °C 35001.1 hPa Calm     82 % 0 mm 496.0 W/m2 CLR
11:34 -11 °C -12.7 °C 35001.1 hPa Calm     82 % 0 mm 506.0 W/m2 CLR
11:39 -10.9 °C -12.6 °C 35001.1 hPa Calm     82 % 0 mm 515.0 W/m2 CLR
11:44 -10.8 °C -12.4 °C 35001.1 hPa Calm     82 % 0 mm 519.0 W/m2 CLR
11:49 -10.7 °C -12.6 °C 35001.1 hPa Calm     80 % 0 mm 517.0 W/m2 CLR
11:54 -10.7 °C -12.7 °C 35001.1 hPa Calm     78 % 0 mm 531.0 W/m2 CLR
11:59 -10.4 °C -12.4 °C 35001.1 hPa Calm     79 % 0 mm 547.0 W/m2 CLR
12:04 -10.3 °C -12.7 °C 35001.1 hPa Calm     76 % 0 mm 543.0 W/m2 CLR
12:09 -10.3 °C -12.6 °C 35001.1 hPa ENE 6 km/h 6 km/h 76 % 0 mm 554.0 W/m2 CLR
12:14 -10.3 °C -12.6 °C 35001.1 hPa ENE 9 km/h 9 km/h 76 % 0 mm 561.0 W/m2 CLR
12:19 -10.3 °C -12.6 °C 34990.9 hPa ENE 9 km/h 9 km/h 76 % 0 mm 568.0 W/m2 CLR
12:24 -10.3 °C -12.8 °C 34990.9 hPa Calm     74 % 0 mm 573.0 W/m2 CLR
12:29 -10.2 °C -12.4 °C 34990.9 hPa ENE 9 km/h 9 km/h 77 % 0 mm 571.0 W/m2 CLR
12:34 -10.1 °C -12.4 °C 34990.9 hPa Calm     76 % 0 mm 582.0 W/m2 CLR
12:39 -10.1 °C -12.4 °C 34990.9 hPa NE 6 km/h 6 km/h 76 % 0 mm 592.0 W/m2 CLR
12:44 -9.9 °C -12.4 °C 34990.9 hPa Calm     75 % 0 mm 603.0 W/m2 CLR
12:49 -9.8 °C -12.2 °C 34980.8 hPa NE 9 km/h 9 km/h 76 % 0 mm 615.0 W/m2 CLR
12:54 -9.8 °C -12.1 °C 34980.8 hPa ENE 15 km/h 15 km/h 76 % 0 mm 605.0 W/m2 CLR
12:59 -9.8 °C -12.2 °C 34980.8 hPa NE 12.9 km/h 12.9 km/h 76 % 0 mm 599.0 W/m2 CLR
13:04 -9.8 °C -12.1 °C 34980.8 hPa NE 15 km/h 15 km/h 76 % 0 mm 594.0 W/m2 CLR
13:09 -9.8 °C -12.2 °C 34980.8 hPa North 9 km/h 9 km/h 76 % 0 mm 591.0 W/m2 CLR
13:14 -9.8 °C -11.9 °C 34967.2 hPa NNE 17.9 km/h 17.9 km/h 78 % 0 mm 589.0 W/m2 CLR
13:19 -9.9 °C -12.1 °C 34980.8 hPa NNE 15 km/h 15 km/h 77 % 0 mm 589.0 W/m2 CLR
13:24 -9.9 °C -12 °C 34967.2 hPa North 15 km/h 15 km/h 78 % 0 mm 599.0 W/m2 CLR
13:29 -9.9 °C -12.2 °C 34967.2 hPa NNE 20.9 km/h 20.9 km/h 76 % 0 mm 594.0 W/m2 CLR
13:34 -9.9 °C -12.1 °C 34967.2 hPa North 9 km/h 9 km/h 77 % 0 mm 587.0 W/m2 CLR
13:39 -9.8 °C -12.1 °C 34967.2 hPa NNE 15 km/h 15 km/h 76 % 0 mm 587.0 W/m2 CLR
13:44 -9.7 °C -12.1 °C 34957.1 hPa ENE 11.9 km/h 11.9 km/h 75 % 0 mm 582.0 W/m2 CLR
13:49 -9.6 °C -12.2 °C 34957.1 hPa Calm     73 % 0 mm 577.0 W/m2 CLR
13:54 -9.5 °C -12.1 °C 34957.1 hPa NNE 11.9 km/h 11.9 km/h 74 % 0 mm 557.0 W/m2 CLR
13:59 -9.4 °C -12.1 °C 34957.1 hPa NNE 6 km/h 6 km/h 73 % 0 mm 578.0 W/m2 CLR
14:04 -9.4 °C -12.1 °C 34957.1 hPa ENE 9 km/h 9 km/h 73 % 0 mm 577.0 W/m2 CLR
14:09 -9.4 °C -12.3 °C 34957.1 hPa North 6 km/h   71 % 0 mm 573.0 W/m2 CLR
14:14 -9.3 °C -12 °C 34946.9 hPa ENE 17.9 km/h 17.9 km/h 73 % 0 mm 573.0 W/m2 CLR
14:19 -9.3 °C -12 °C 34946.9 hPa ENE 17.9 km/h 17.9 km/h 73 % 0 mm 566.0 W/m2 CLR
14:24 -9.3 °C -11.9 °C 34946.9 hPa Calm     73 % 0 mm 557.0 W/m2 CLR
14:29 -9.2 °C -12 °C 34946.9 hPa NE 11.9 km/h 12.2 km/h 72 % 0 mm 555.0 W/m2 CLR
14:34 -9.2 °C -12.2 °C 34946.9 hPa Calm     70 % 0 mm 548.0 W/m2 CLR
14:40 -9.1 °C -12.2 °C 34946.9 hPa Calm     70 % 0 mm 548.0 W/m2 CLR
14:45 -9.1 °C -12.1 °C 34946.9 hPa NE 5.1 km/h 5.1 km/h 70 % 0 mm 543.0 W/m2 CLR
14:50 -9 °C -11.9 °C 34933.4 hPa NE 11.9 km/h 11.9 km/h 71 % 0 mm 519.0 W/m2 CLR
14:55 -9 °C -12 °C 34933.4 hPa North 3.1 km/h 3.1 km/h 70 % 0 mm 506.0 W/m2 CLR
15:00 -8.9 °C -11.8 °C 34946.9 hPa North 17.9 km/h 17.9 km/h 71 % 0 mm 475.0 W/m2 CLR
15:05 -8.8 °C -11.8 °C 34946.9 hPa NE 15 km/h 15 km/h 71 % 0 mm 478.0 W/m2 CLR
15:10 -8.8 °C -12 °C 34946.9 hPa ENE 11.9 km/h 11.9 km/h 69 % 0 mm 483.0 W/m2 CLR
15:15 -8.8 °C -12 °C 34933.4 hPa Calm     69 % 0 mm 489.0 W/m2 CLR
15:20 -8.7 °C -11.8 °C 34933.4 hPa NE 9 km/h 9 km/h 70 % 0 mm 478.0 W/m2 CLR
15:25 -8.7 °C -12.3 °C 34933.4 hPa NNE 9 km/h 9 km/h 66 % 0 mm 461.0 W/m2 CLR
15:30 -8.7 °C -12.2 °C 34933.4 hPa NNE 12.9 km/h 12.9 km/h 67 % 0 mm 450.0 W/m2 CLR
15:35 -8.7 °C -12.1 °C 34933.4 hPa NE 9 km/h 9 km/h 68 % 0 mm 462.0 W/m2 CLR
15:40 -8.7 °C -11.8 °C 34933.4 hPa Calm     69 % 0 mm 452.0 W/m2 CLR
15:45 -8.6 °C -12.1 °C 34933.4 hPa ENE 10.3 km/h 10.3 km/h 67 % 0 mm 397.0 W/m2 CLR
15:50 -8.6 °C -12.2 °C 34933.4 hPa ENE 10.3 km/h 10.3 km/h 65 % 0 mm 406.0 W/m2 CLR
15:55 -8.6 °C -12.3 °C 34933.4 hPa ESE 6 km/h 6 km/h 65 % 0 mm 415.0 W/m2 CLR
16:00 -8.7 °C -12.1 °C 34933.4 hPa NNE 11.9 km/h 11.9 km/h 67 % 0 mm 313.0 W/m2 CLR
16:05 -8.7 °C -12.1 °C 34933.4 hPa Calm     67 % 0 mm 374.0 W/m2 CLR
16:10 -8.7 °C -12.3 °C 34933.4 hPa Calm     66 % 0 mm 350.0 W/m2 CLR
16:15 -8.6 °C -12.3 °C 34933.4 hPa NNE 9 km/h 9 km/h 65 % 0 mm 343.0 W/m2 CLR
16:20 -8.5 °C -12.1 °C 34933.4 hPa NE 15 km/h 16.1 km/h 66 % 0 mm 323.0 W/m2 CLR
16:25 -8.6 °C -12.1 °C 34933.4 hPa ENE 17.9 km/h 17.9 km/h 66 % 0 mm 325.0 W/m2 CLR
16:30 -8.7 °C -12.2 °C 34933.4 hPa NE 20.9 km/h 20.9 km/h 66 % 0 mm 323.0 W/m2 CLR
16:35 -8.8 °C -12.2 °C 34933.4 hPa NE 17.9 km/h 17.9 km/h 67 % 0 mm 113.0 W/m2 CLR
16:40 -8.8 °C -12.2 °C 34933.4 hPa NE 17.9 km/h 17.9 km/h 67 % 0 mm 237.0 W/m2 CLR
16:45 -8.8 °C -12.3 °C 34933.4 hPa Calm     67 % 0 mm 251.0 W/m2 CLR
16:50 -8.8 °C -12.2 °C 34933.4 hPa NE 15.6 km/h 15.6 km/h 67 % 0 mm 234.0 W/m2 CLR
16:55 -8.8 °C -12.2 °C 34933.4 hPa NE 15.6 km/h 15.6 km/h 67 % 0 mm 197.0 W/m2 CLR
17:00 -8.8 °C -12.3 °C 34923.2 hPa NE 9 km/h 9 km/h 66 % 0 mm 214.0 W/m2 CLR
17:05 -8.8 °C -12.3 °C 34923.2 hPa NNE 15 km/h 15 km/h 67 % 0 mm 207.0 W/m2 CLR
17:10 -8.9 °C -12.2 °C 34933.4 hPa NNE 9 km/h 9 km/h 68 % 0 mm 195.0 W/m2 CLR
17:15 -8.9 °C -12.2 °C 34923.2 hPa NE 15 km/h 15 km/h 68 % 0 mm 179.0 W/m2 CLR
17:20 -8.9 °C -12.1 °C 34923.2 hPa NE 15 km/h 15 km/h 69 % 0 mm 172.0 W/m2 CLR
17:25 -9 °C -12.3 °C 34923.2 hPa ENE 9 km/h 9 km/h 68 % 0 mm 137.0 W/m2 CLR
17:30 -9 °C -12.3 °C 34923.2 hPa ENE 10.3 km/h 10.3 km/h 68 % 0 mm 128.0 W/m2 CLR
17:35 -9.1 °C -12.2 °C 34923.2 hPa ENE 9 km/h 9 km/h 69 % 0 mm 113.0 W/m2 CLR
17:40 -9.1 °C -12.3 °C 34923.2 hPa NE 11.9 km/h 11.9 km/h 69 % 0 mm 88.0 W/m2 CLR
17:45 -9.2 °C -12.2 °C 34923.2 hPa NE 12.9 km/h 12.9 km/h 70 % 0 mm 70.0 W/m2 FEW
17:50 -9.3 °C -12.3 °C 34933.4 hPa NE 20.8 km/h 20.8 km/h 70 % 0 mm 58.0 W/m2 SCT
17:55 -9.4 °C -12.3 °C 34933.4 hPa NE 9 km/h 9 km/h 71 % 0 mm 49.0 W/m2 SCT
18:00 -9.4 °C -12.3 °C 34933.4 hPa NE 9 km/h 9 km/h 71 % 0 mm 39.0 W/m2 BKN
18:05 -9.6 °C -12.3 °C 34933.4 hPa NNE 10.3 km/h 10.3 km/h 72 % 0 mm 32.0 W/m2 BKN
18:10 -9.6 °C -12.4 °C 34933.4 hPa NE 10.3 km/h 10.3 km/h 72 % 0 mm 25.0 W/m2 BKN
18:15 -9.7 °C -12.4 °C 34933.4 hPa Calm     72 % 0 mm 18.0 W/m2 BKN
18:20 -9.8 °C -12.4 °C 34933.4 hPa Calm     73 % 0 mm 12.0 W/m2 BKN
18:25 -9.8 °C -12.4 °C 34946.9 hPa Calm     73 % 0 mm 7.0 W/m2 BKN
18:30 -9.9 °C -12.4 °C 34946.9 hPa Calm     74 % 0 mm 0.0 W/m2 OVC
18:35 -9.9 °C -12.5 °C 34946.9 hPa Calm     74 % 0 mm 0.0 W/m2 OVC
18:40 -10.1 °C -12.4 °C 34946.9 hPa Calm     75 % 0 mm 0.0 W/m2 OVC
18:45 -10.1 °C -12.5 °C 34946.9 hPa Calm     75 % 0 mm 0.0 W/m2 CLR
18:50 -10.2 °C -12.5 °C 34946.9 hPa Calm     76 % 0 mm 0.0 W/m2 CLR
18:55 -10.3 °C -12.6 °C 34946.9 hPa Calm     76 % 0 mm 0.0 W/m2 CLR
19:00 -10.4 °C -12.7 °C 34946.9 hPa Calm     76 % 0 mm 0.0 W/m2 CLR
19:01 -10.4 °C -12.7 °C 34946.9 hPa Calm     76 % 0 mm 0.0 W/m2 CLR
19:05 -10.4 °C -12.8 °C 34957.1 hPa Calm     75 % 0 mm 0.0 W/m2 CLR
19:11 -10.5 °C -12.7 °C 34957.1 hPa Calm     77 % 0 mm 0.0 W/m2 CLR
19:16 -10.7 °C -12.8 °C 34957.1 hPa Calm     77 % 0 mm 0.0 W/m2 CLR
19:21 -10.8 °C -12.9 °C 34957.1 hPa Calm     78 % 0 mm 0.0 W/m2 CLR
19:26 -10.9 °C -13 °C 34957.1 hPa Calm     78 % 0 mm 0.0 W/m2 CLR
19:31 -11.1 °C -13 °C 34957.1 hPa Calm     79 % 0 mm 0.0 W/m2 CLR
19:36 -11.2 °C -13 °C 34957.1 hPa Calm     80 % 0 mm 0.0 W/m2 CLR
19:41 -11.2 °C -13 °C 34967.2 hPa Calm     81 % 0 mm 0.0 W/m2 CLR
19:46 -11.4 °C -13.3 °C 34967.2 hPa Calm     80 % 0 mm 0.0 W/m2 CLR
19:51 -11.7 °C -13.3 °C 34967.2 hPa Calm     82 % 0 mm 0.0 W/m2 CLR
19:56 -12 °C -13.4 °C 34967.2 hPa Calm     84 % 0 mm 0.0 W/m2 CLR
20:01 -12.1 °C -13.4 °C 34967.2 hPa Calm     85 % 0 mm 0.0 W/m2 CLR
20:06 -12.1 °C -13.3 °C 34967.2 hPa Calm     86 % 0 mm 0.0 W/m2 CLR
20:11 -12.1 °C -13.3 °C 34980.8 hPa Calm     86 % 0 mm 0.0 W/m2 CLR
20:16 -12.1 °C -13.4 °C 34980.8 hPa Calm     85 % 0 mm 0.0 W/m2 CLR
20:21 -12.2 °C -13.6 °C 34980.8 hPa Calm     85 % 0 mm 0.0 W/m2 CLR
20:26 -12.3 °C -13.6 °C 34980.8 hPa Calm     86 % 0 mm 0.0 W/m2 CLR
20:31 -12.3 °C -13.5 °C 34980.8 hPa Calm     87 % 0 mm 0.0 W/m2 CLR
20:36 -12.4 °C -13.6 °C 34980.8 hPa Calm     87 % 0 mm 0.0 W/m2 CLR
20:41 -12.5 °C -13.7 °C 34980.8 hPa Calm     87 % 0 mm 0.0 W/m2 CLR
20:46 -12.6 °C -13.7 °C 34990.9 hPa Calm     87 % 0 mm 0.0 W/m2 CLR
20:51 -12.6 °C -13.7 °C 34990.9 hPa Calm     87 % 0 mm 0.0 W/m2 CLR
20:56 -12.6 °C -13.7 °C 34990.9 hPa Calm     88 % 0 mm 0.0 W/m2 CLR
21:01 -12.6 °C -13.8 °C 34990.9 hPa Calm     87 % 0 mm 0.0 W/m2 CLR
21:06 -12.7 °C -13.8 °C 34990.9 hPa Calm     88 % 0 mm 0.0 W/m2 CLR
21:11 -12.8 °C -13.8 °C 34990.9 hPa Calm     88 % 0 mm 0.0 W/m2 CLR
21:16 -12.8 °C -13.8 °C 34990.9 hPa Calm     88 % 0 mm 0.0 W/m2 CLR
21:21 -12.9 °C -13.9 °C 35001.1 hPa Calm     88 % 0 mm 0.0 W/m2 CLR
21:26 -12.9 °C -14 °C 35001.1 hPa Calm     88 % 0 mm 0.0 W/m2 CLR
21:31 -13.1 °C -14.1 °C 35001.1 hPa Calm     88 % 0 mm 0.0 W/m2 CLR
21:36 -13.2 °C -14.2 °C 35001.1 hPa Calm     88 % 0 mm 0.0 W/m2 CLR
21:41 -13.3 °C -14.3 °C 35001.1 hPa Calm     88 % 0 mm 0.0 W/m2 CLR
21:46 -13.4 °C -14.4 °C 35001.1 hPa Calm     88 % 0 mm 0.0 W/m2 CLR
21:51 -13.4 °C -14.4 °C 35001.1 hPa Calm     89 % 0 mm 0.0 W/m2 CLR
21:56 -13.5 °C -14.5 °C 35001.1 hPa Calm     89 % 0 mm 0.0 W/m2 CLR
22:01 -13.6 °C -14.4 °C 35014.6 hPa Calm     90 % 0 mm 0.0 W/m2 CLR
22:06 -13.7 °C -14.5 °C 35014.6 hPa Calm     90 % 0 mm 0.0 W/m2 CLR
22:11 -13.7 °C -14.6 °C 35014.6 hPa Calm     90 % 0 mm 0.0 W/m2 CLR
22:16 -13.8 °C -14.6 °C 35014.6 hPa Calm     90 % 0 mm 0.0 W/m2 CLR
22:21 -13.8 °C -14.7 °C 35014.6 hPa Calm     90 % 0 mm 0.0 W/m2 CLR
22:26 -13.9 °C -14.8 °C 35014.6 hPa Calm     90 % 0 mm 0.0 W/m2 CLR
22:31 -13.9 °C -14.8 °C 35014.6 hPa Calm     90 % 0 mm 0.0 W/m2 CLR
22:36 -14.1 °C -14.9 °C 35014.6 hPa Calm     90 % 0 mm 0.0 W/m2 CLR
22:41 -14.1 °C -14.9 °C 35014.6 hPa Calm     91 % 0 mm 0.0 W/m2 CLR
22:46 -14.2 °C -14.9 °C 35024.8 hPa Calm     91 % 0 mm 0.0 W/m2 CLR
22:51 -14.2 °C -15 °C 35024.8 hPa Calm     91 % 0 mm 0.0 W/m2 CLR
22:56 -14.3 °C -15.1 °C 35024.8 hPa Calm     91 % 0 mm 0.0 W/m2 CLR
23:01 -14.3 °C -15.1 °C 35024.8 hPa Calm     91 % 0 mm 0.0 W/m2 CLR
23:06 -14.3 °C -15.1 °C 35024.8 hPa Calm     91 % 0 mm 0.0 W/m2 CLR
23:11 -14.3 °C -14.9 °C 35024.8 hPa Calm     92 % 0 mm 0.0 W/m2 CLR
23:16 -14.2 °C -14.9 °C 35024.8 hPa Calm     92 % 0 mm 0.0 W/m2 CLR
23:21 -14.2 °C -14.9 °C 35024.8 hPa Calm     92 % 0 mm 0.0 W/m2 CLR
23:26 -14.3 °C -15.1 °C 35024.8 hPa Calm     91 % 0 mm 0.0 W/m2 CLR
23:31 -14.3 °C -14.9 °C 35024.8 hPa Calm     92 % 0 mm 0.0 W/m2 CLR
23:36 -14.3 °C -14.9 °C 35024.8 hPa Calm     92 % 0 mm 0.0 W/m2 CLR
23:41 -14.3 °C -15 °C 35024.8 hPa Calm     92 % 0 mm 0.0 W/m2 CLR
23:46 -14.3 °C -15 °C 35024.8 hPa Calm     92 % 0 mm 0.0 W/m2 CLR
23:51 -14.3 °C -15 °C 35024.8 hPa Calm     92 % 0 mm 0.0 W/m2 CLR
23:56 -14.4 °C -15.1 °C 35024.8 hPa Calm     92 % 0 mm 0.0 W/m2 CLR
Lo Temps de Massalio
Compliments of Weather Underground - 1.25 mb